| time (UTC) | temp F | wind direction | speed knots | gust knots | rain 1hr in | rain 24hr in | rain mn in | humidity % | barometer mb |
| 20260504215528 | 76 | 182 | 3.5 | 7.8 | 0.00 | 0.03 | 0.03 | 45 | 1017.5 |
| 20260504215026 | 76 | 180 | 1.7 | 11.3 | 0.00 | 0.03 | 0.03 | 47 | 1017.5 |
| 20260504214522 | 77 | 183 | 2.6 | 10.4 | 0.00 | 0.03 | 0.03 | 46 | 1017.7 |
| 20260504214018 | 77 | 100 | 4.3 | 4.3 | 0.00 | 0.03 | 0.03 | 43 | 1017.4 |
| 20260504213515 | 76 | 179 | 1.7 | 7.8 | 0.00 | 0.03 | 0.03 | 44 | 1017.7 |
| 20260504213012 | 77 | 215 | 7.0 | 10.4 | 0.00 | 0.03 | 0.03 | 42 | 1017.8 |
| 20260504212508 | 77 | 167 | 3.5 | 7.0 | 0.00 | 0.03 | 0.03 | 45 | 1017.8 |
| 20260504212005 | 77 | 234 | 5.2 | 8.7 | 0.00 | 0.03 | 0.03 | 44 | 1017.9 |
| 20260504211502 | 77 | 245 | 4.3 | 13.9 | 0.00 | 0.03 | 0.03 | 42 | 1018.0 |
| 20260504210959 | 77 | 194 | 7.0 | 8.7 | 0.00 | 0.03 | 0.03 | 42 | 1017.9 |
| 20260504210456 | 77 | 218 | 9.6 | 10.4 | 0.00 | 0.03 | 0.03 | 40 | 1018.1 |
| 20260504205953 | 77 | 215 | 11.3 | 11.3 | 0.00 | 0.03 | 0.03 | 43 | 1018.0 |
| 20260504205450 | 77 | 161 | 3.5 | 9.6 | 0.00 | 0.03 | 0.03 | 43 | 1018.0 |
| 20260504204948 | 77 | 214 | 6.1 | 9.6 | 0.00 | 0.03 | 0.03 | 41 | 1018.1 |
| 20260504204446 | 78 | 171 | 5.2 | 9.6 | 0.00 | 0.03 | 0.03 | 41 | 1018.3 |
| 20260504203945 | 78 | 193 | 2.6 | 6.1 | 0.00 | 0.03 | 0.03 | 47 | 1018.2 |
| 20260504203443 | 78 | 88 | 2.6 | 3.5 | 0.00 | 0.03 | 0.03 | 42 | 1018.4 |
| 20260504202938 | 77 | 193 | 1.7 | 9.6 | 0.00 | 0.03 | 0.03 | 42 | 1018.4 |
| 20260504202435 | 77 | 136 | 3.5 | 10.4 | 0.00 | 0.03 | 0.03 | 44 | 1018.6 |
| 20260504201932 | 77 | 265 | 3.5 | 12.2 | 0.00 | 0.03 | 0.03 | 43 | 1018.6 |
| 20260504201429 | 77 | 219 | 5.2 | 7.8 | 0.00 | 0.03 | 0.03 | 44 | 1018.6 |
| 20260504200927 | 77 | 197 | 3.5 | 7.8 | 0.00 | 0.03 | 0.03 | 47 | 1018.8 |
| 20260504200423 | 78 | 187 | 5.2 | 9.6 | 0.00 | 0.03 | 0.03 | 44 | 1019.1 |
| 20260504195920 | 78 | 224 | 2.6 | 3.5 | 0.00 | 0.03 | 0.03 | 45 | 1018.9 |
| 20260504195416 | 77 | 231 | 4.3 | 6.1 | 0.00 | 0.03 | 0.03 | 42 | 1018.8 |
| 20260504194913 | 77 | 180 | 6.1 | 13.0 | 0.00 | 0.03 | 0.03 | 42 | 1018.9 |
| 20260504194408 | 77 | 219 | 5.2 | 7.8 | 0.00 | 0.03 | 0.03 | 44 | 1019.2 |
| 20260504193905 | 77 | 204 | 3.5 | 9.6 | 0.00 | 0.03 | 0.03 | 45 | 1019.4 |
| 20260504193402 | 78 | 199 | 4.3 | 8.7 | 0.00 | 0.03 | 0.03 | 43 | 1019.5 |
| 20260504192901 | 77 | 167 | 0.9 | 3.5 | 0.00 | 0.03 | 0.03 | 41 | 1019.4 |
| 20260504192358 | 77 | 219 | 2.6 | 4.3 | 0.00 | 0.03 | 0.03 | 49 | 1019.7 |
| 20260504191856 | 77 | 225 | 6.1 | 9.6 | 0.00 | 0.03 | 0.03 | 44 | 1019.5 |
| 20260504191354 | 77 | 231 | 7.0 | 9.6 | 0.00 | 0.03 | 0.03 | 43 | 1019.7 |
| 20260504190849 | 77 | 231 | 4.3 | 7.0 | 0.00 | 0.03 | 0.03 | 43 | 1019.7 |
| 20260504190345 | 78 | 212 | 6.1 | 8.7 | 0.00 | 0.03 | 0.03 | 44 | 1019.5 |
| 20260504185842 | 77 | 228 | 3.5 | 8.7 | 0.00 | 0.03 | 0.03 | 45 | 1019.9 |
| 20260504185339 | 77 | 192 | 3.5 | 5.2 | 0.00 | 0.03 | 0.03 | 49 | 1020.0 |
| 20260504184835 | 77 | 224 | 5.2 | 6.1 | 0.00 | 0.03 | 0.03 | 49 | 1019.9 |
| 20260504184331 | 76 | 204 | 1.7 | 4.3 | 0.00 | 0.03 | 0.03 | 50 | 1019.7 |
| 20260504183827 | 76 | 196 | 3.5 | 9.6 | 0.00 | 0.03 | 0.03 | 49 | 1019.8 |
| 20260504183324 | 77 | 118 | 2.6 | 5.2 | 0.00 | 0.03 | 0.03 | 44 | 1019.8 |
| 20260504182822 | 77 | 226 | 1.7 | 8.7 | 0.00 | 0.03 | 0.03 | 44 | 1019.9 |
| 20260504182319 | 77 | 48 | 3.5 | 3.5 | 0.00 | 0.03 | 0.03 | 43 | 1019.9 |
| 20260504181816 | 76 | 222 | 4.3 | 9.6 | 0.00 | 0.03 | 0.03 | 44 | 1019.9 |
| 20260504181314 | 76 | 204 | 5.2 | 9.6 | 0.00 | 0.03 | 0.03 | 45 | 1020.2 |
| 20260504180813 | 77 | 205 | 11.3 | 12.2 | 0.00 | 0.03 | 0.03 | 43 | 1020.3 |
| 20260504180311 | 77 | 311 | 0.0 | 3.5 | 0.00 | 0.03 | 0.03 | 49 | 1020.2 |
| 20260504175808 | 76 | 235 | 3.5 | 13.0 | 0.00 | 0.03 | 0.03 | 45 | 1020.5 |
| 20260504175305 | 77 | 215 | 4.3 | 6.1 | 0.00 | 0.03 | 0.03 | 42 | 1020.4 |
| 20260504174803 | 77 | 194 | 4.3 | 4.3 | 0.00 | 0.03 | 0.03 | 47 | 1020.7 |
| 20260504174300 | 76 | 189 | 2.6 | 4.3 | 0.00 | 0.03 | 0.03 | 47 | 1020.5 |
| 20260504173757 | 76 | 201 | 4.3 | 8.7 | 0.00 | 0.03 | 0.03 | 43 | 1020.6 |
| 20260504173254 | 76 | 146 | 4.3 | 6.1 | 0.00 | 0.03 | 0.03 | 46 | 1020.7 |
| 20260504172750 | 76 | 212 | 7.0 | 10.4 | 0.00 | 0.03 | 0.03 | 45 | 1020.6 |
| 20260504172247 | 75 | 197 | 0.0 | 5.2 | 0.00 | 0.03 | 0.03 | 45 | 1020.7 |
| 20260504171743 | 75 | 200 | 1.7 | 2.6 | 0.00 | 0.03 | 0.03 | 48 | 1020.9 |
| 20260504171240 | 75 | 215 | 7.0 | 9.6 | 0.00 | 0.03 | 0.03 | 49 | 1020.9 |
| 20260504170737 | 75 | 205 | 3.5 | 9.6 | 0.00 | 0.03 | 0.03 | 45 | 1021.2 |
| 20260504170235 | 75 | 203 | 8.7 | 9.6 | 0.00 | 0.03 | 0.03 | 45 | 1021.0 |
| 20260504160153 | 73 | 169 | 3.5 | 12.2 | 0.00 | 0.03 | 0.03 | 54 | 1021.3 |
| 20260504151121 | 71 | 254 | 3.5 | 4.3 | 0.00 | 0.03 | 0.03 | 58 | 1021.5 |
| 20260504150618 | 71 | 201 | 4.3 | 5.2 | 0.00 | 0.03 | 0.03 | 60 | 1021.4 |
| 20260504150115 | 71 | 60 | 0.0 | 0.9 | 0.00 | 0.03 | 0.03 | 62 | 1021.5 |
| 20260504141044 | 64 | 204 | 4.3 | 5.2 | 0.00 | 0.00 | 0.00 | 79 | 1021.8 |
| 20260504140540 | 63 | 237 | 4.3 | 5.2 | 0.00 | 0.00 | 0.00 | 86 | 1021.7 |
| 20260504130504 | 52 | 348 | 0.9 | 1.7 | 0.00 | 0.00 | 0.00 | 99 | 1021.5 |
| 20260504110351 | 48 | 287 | 0.9 | 1.7 | 0.00 | 0.00 | 0.00 | 99 | 1021.0 |
| 20260504100309 | 48 | 322 | 0.9 | 1.7 | 0.00 | 0.00 | 0.00 | 99 | 1020.9 |
| 20260504081703 | 50 | 320 | 0.9 | 1.7 | 0.00 | 0.00 | 0.00 | 99 | 1021.3 |
| 20260504081159 | 50 | 306 | 1.7 | 2.6 | 0.00 | 0.00 | 0.00 | 99 | 1021.5 |
| 20260504080655 | 50 | 311 | 0.9 | 1.7 | 0.00 | 0.00 | 0.00 | 99 | 1021.1 |
| 20260504080152 | 50 | 332 | 0.9 | 1.7 | 0.00 | 0.00 | 0.00 | 99 | 1021.1 |
| 20260504070120 | 51 | 34 | 0.0 | 0.0 | 0.00 | 0.00 | 0.00 | 99 | 1021.8 |
| 20260504050508 | 53 | 323 | 1.7 | 1.7 | 0.00 | 0.00 | 0.00 | 98 | 1022.5 |
| 20260504050005 | 53 | 330 | 1.7 | 1.7 | 0.00 | 0.00 | 0.00 | 98 | 1022.6 |
| 20260504045501 | 53 | 307 | 0.0 | 1.7 | 0.00 | 0.00 | 0.00 | 98 | 1022.6 |
| 20260504044957 | 54 | 319 | 0.0 | 1.7 | 0.00 | 0.00 | 0.00 | 98 | 1022.4 |
| 20260504044455 | 54 | 319 | 0.0 | 1.7 | 0.00 | 0.00 | 0.00 | 98 | 1022.7 |
| 20260504043952 | 54 | 293 | 0.9 | 1.7 | 0.00 | 0.00 | 0.00 | 98 | 1022.5 |
| 20260504043449 | 54 | 323 | 1.7 | 1.7 | 0.00 | 0.00 | 0.00 | 98 | 1022.7 |
| 20260504042946 | 54 | 342 | 1.7 | 2.6 | 0.00 | 0.00 | 0.00 | 97 | 1022.6 |
| 20260504042443 | 54 | 327 | 2.6 | 2.6 | 0.00 | 0.00 | 0.00 | 97 | 1022.8 |
| 20260504041940 | 54 | 325 | 1.7 | 1.7 | 0.00 | 0.00 | 0.00 | 97 | 1022.5 |
| 20260504041436 | 55 | 277 | 0.9 | 1.7 | 0.00 | 0.00 | 0.00 | 97 | 1022.7 |
| 20260504040932 | 55 | 295 | 1.7 | 2.6 | 0.00 | 0.00 | 0.00 | 97 | 1022.5 |
| 20260504040430 | 55 | 330 | 2.6 | 2.6 | 0.00 | 0.00 | 0.00 | 97 | 1022.7 |
| 20260504035925 | 55 | 334 | 1.7 | 1.7 | 0.00 | 0.00 | 0.00 | 97 | 1022.7 |
| 20260504035423 | 55 | 296 | 0.9 | 0.9 | 0.00 | 0.00 | 0.00 | 97 | 1022.7 |
| 20260504034919 | 55 | 328 | 1.7 | 1.7 | 0.00 | 0.00 | 0.00 | 97 | 1022.7 |
| 20260504034417 | 55 | 333 | 1.7 | 1.7 | 0.00 | 0.00 | 0.00 | 97 | 1022.6 |
| 20260504033914 | 55 | 327 | 1.7 | 1.7 | 0.00 | 0.00 | 0.00 | 97 | 1022.7 |
| 20260504033412 | 55 | 331 | 1.7 | 1.7 | 0.00 | 0.00 | 0.00 | 97 | 1022.7 |
| 20260504032909 | 56 | 332 | 1.7 | 2.6 | 0.00 | 0.00 | 0.00 | 96 | 1022.4 |
| 20260504032405 | 56 | 310 | 1.7 | 1.7 | 0.00 | 0.00 | 0.00 | 96 | 1022.6 |
| 20260504031902 | 56 | 323 | 1.7 | 1.7 | 0.00 | 0.00 | 0.00 | 96 | 1022.7 |
| 20260504031359 | 56 | 332 | 1.7 | 1.7 | 0.00 | 0.00 | 0.00 | 96 | 1022.7 |
| 20260504030855 | 56 | 325 | 0.9 | 1.7 | 0.00 | 0.00 | 0.00 | 96 | 1022.7 |
| 20260504030353 | 56 | 323 | 1.7 | 1.7 | 0.00 | 0.00 | 0.00 | 96 | 1022.6 |
| 20260504025849 | 56 | 328 | 0.9 | 1.7 | 0.00 | 0.00 | 0.00 | 95 | 1022.6 |
| 20260504025346 | 57 | 324 | 0.9 | 1.7 | 0.00 | 0.00 | 0.00 | 95 | 1022.9 |
| 20260504024843 | 57 | 331 | 0.9 | 1.7 | 0.00 | 0.00 | 0.00 | 95 | 1022.7 |
| 20260504024339 | 57 | 313 | 0.9 | 1.7 | 0.00 | 0.00 | 0.00 | 94 | 1022.5 |
| 20260504023836 | 57 | 280 | 0.0 | 0.9 | 0.00 | 0.00 | 0.00 | 94 | 1022.4 |
| 20260504023333 | 57 | 315 | 1.7 | 1.7 | 0.00 | 0.00 | 0.00 | 94 | 1022.5 |
| 20260504022828 | 57 | 312 | 1.7 | 1.7 | 0.00 | 0.00 | 0.00 | 93 | 1022.3 |
| 20260504022326 | 58 | 301 | 0.9 | 1.7 | 0.00 | 0.00 | 0.00 | 93 | 1022.3 |
| 20260504021822 | 58 | 296 | 1.7 | 1.7 | 0.00 | 0.00 | 0.00 | 93 | 1022.5 |
| 20260504021320 | 58 | 312 | 1.7 | 2.6 | 0.00 | 0.00 | 0.00 | 92 | 1022.3 |
| 20260504020816 | 58 | 293 | 0.9 | 1.7 | 0.00 | 0.00 | 0.00 | 91 | 1022.4 |
| 20260504020313 | 59 | 326 | 1.7 | 1.7 | 0.00 | 0.00 | 0.00 | 91 | 1022.2 |
| 20260504015809 | 59 | 271 | 0.9 | 1.7 | 0.00 | 0.00 | 0.00 | 90 | 1022.1 |
| 20260504015305 | 59 | 303 | 0.0 | 0.0 | 0.00 | 0.00 | 0.00 | 89 | 1022.1 |
| 20260504014801 | 60 | 308 | 0.0 | 1.7 | 0.00 | 0.00 | 0.00 | 88 | 1022.1 |
| 20260504014258 | 60 | 317 | 1.7 | 1.7 | 0.00 | 0.00 | 0.00 | 87 | 1021.9 |
| 20260504013755 | 60 | 333 | 0.9 | 1.7 | 0.00 | 0.00 | 0.00 | 86 | 1022.0 |
| 20260504013253 | 61 | 333 | 0.9 | 1.7 | 0.00 | 0.00 | 0.00 | 84 | 1021.9 |
| 20260504012749 | 61 | 280 | 0.0 | 0.9 | 0.00 | 0.00 | 0.00 | 83 | 1022.0 |
| 20260504012247 | 62 | 311 | 0.9 | 1.7 | 0.00 | 0.00 | 0.00 | 83 | 1021.6 |
| 20260504011744 | 62 | 312 | 1.7 | 1.7 | 0.00 | 0.00 | 0.00 | 82 | 1021.8 |
| 20260504011241 | 62 | 316 | 1.7 | 2.6 | 0.00 | 0.00 | 0.00 | 81 | 1021.7 |
| 20260504010737 | 63 | 291 | 0.9 | 1.7 | 0.00 | 0.00 | 0.00 | 79 | 1021.7 |
| 20260504010232 | 64 | 288 | 0.0 | 0.9 | 0.00 | 0.00 | 0.00 | 78 | 1021.6 |
| 20260504005730 | 64 | 287 | 0.9 | 0.9 | 0.00 | 0.00 | 0.00 | 76 | 1021.5 |
| 20260504005227 | 65 | 283 | 0.0 | 2.6 | 0.00 | 0.00 | 0.00 | 75 | 1021.5 |
| 20260504004724 | 65 | 308 | 1.7 | 1.7 | 0.00 | 0.00 | 0.00 | 73 | 1021.4 |
| 20260504004221 | 66 | 325 | 1.7 | 1.7 | 0.00 | 0.00 | 0.00 | 71 | 1021.5 |
| 20260504003718 | 66 | 320 | 2.6 | 2.6 | 0.00 | 0.00 | 0.00 | 71 | 1021.5 |
| 20260504003215 | 67 | 293 | 1.7 | 1.7 | 0.00 | 0.00 | 0.00 | 70 | 1021.6 |
| 20260504002711 | 68 | 323 | 1.7 | 2.6 | 0.00 | 0.00 | 0.00 | 67 | 1021.5 |
| 20260504002208 | 68 | 324 | 1.7 | 2.6 | 0.00 | 0.00 | 0.00 | 68 | 1021.4 |
| 20260504001707 | 69 | 323 | 1.7 | 2.6 | 0.00 | 0.00 | 0.00 | 66 | 1021.5 |
| 20260504001203 | 70 | 319 | 1.7 | 1.7 | 0.00 | 0.00 | 0.00 | 64 | 1021.5 |
| 20260504000700 | 70 | 300 | 1.7 | 1.7 | 0.00 | 0.00 | 0.00 | 62 | 1021.5 |
| 20260504000157 | 71 | 331 | 1.7 | 1.7 | 0.00 | 0.00 | 0.00 | 61 | 1021.5 |
| 20260503235655 | 71 | 322 | 0.9 | 1.7 | 0.00 | 0.00 | 0.00 | 58 | 1021.4 |
| 20260503235151 | 72 | 214 | 0.0 | 0.9 | 0.00 | 0.00 | 0.00 | 57 | 1021.7 |
| 20260503234649 | 73 | 309 | 1.7 | 1.7 | 0.00 | 0.00 | 0.00 | 57 | 1021.6 |
| 20260503234147 | 73 | 290 | 1.7 | 1.7 | 0.00 | 0.00 | 0.00 | 52 | 1021.6 |
| 20260503233644 | 73 | 216 | 1.7 | 2.6 | 0.00 | 0.00 | 0.00 | 48 | 1021.7 |
| 20260503233139 | 74 | 226 | 1.7 | 1.7 | 0.00 | 0.00 | 0.00 | 49 | 1021.9 |
| 20260503232636 | 74 | 242 | 0.0 | 0.0 | 0.00 | 0.00 | 0.00 | 48 | 1022.0 |
| 20260503232134 | 74 | 220 | 2.6 | 2.6 | 0.00 | 0.00 | 0.00 | 42 | 1022.0 |
| 20260503231632 | 74 | 237 | 0.9 | 1.7 | 0.00 | 0.00 | 0.00 | 45 | 1021.9 |
| 20260503231128 | 74 | 266 | 1.7 | 1.7 | 0.00 | 0.00 | 0.00 | 44 | 1022.0 |
| 20260503230625 | 75 | 173 | 1.7 | 3.5 | 0.00 | 0.00 | 0.00 | 43 | 1022.0 |
| 20260503230122 | 75 | 258 | 2.6 | 3.5 | 0.00 | 0.00 | 0.00 | 46 | 1021.9 |
| 20260503225620 | 75 | 243 | 1.7 | 2.6 | 0.00 | 0.00 | 0.00 | 45 | 1022.0 |
| 20260503225119 | 75 | 322 | 1.7 | 2.6 | 0.00 | 0.00 | 0.00 | 45 | 1022.1 |
| 20260503224617 | 75 | 213 | 2.6 | 2.6 | 0.00 | 0.00 | 0.00 | 45 | 1022.0 |
| 20260503224115 | 75 | 156 | 0.0 | 2.6 | 0.00 | 0.00 | 0.00 | 45 | 1022.2 |
| 20260503223613 | 75 | 260 | 1.7 | 4.3 | 0.00 | 0.00 | 0.00 | 42 | 1022.2 |
| 20260503223108 | 75 | 252 | 1.7 | 4.3 | 0.00 | 0.00 | 0.00 | 44 | 1022.1 |
| 20260503222606 | 75 | 269 | 1.7 | 2.6 | 0.00 | 0.00 | 0.00 | 45 | 1022.4 |
| 20260503222104 | 75 | 311 | 3.5 | 6.1 | 0.00 | 0.00 | 0.00 | 45 | 1022.3 |
| 20260503221602 | 75 | 207 | 0.9 | 2.6 | 0.00 | 0.00 | 0.00 | 42 | 1022.3 |
| 20260503221059 | 75 | 225 | 4.3 | 6.1 | 0.00 | 0.00 | 0.00 | 42 | 1022.2 |
| 20260503220555 | 75 | 213 | 7.0 | 7.8 | 0.00 | 0.00 | 0.00 | 43 | 1022.4 |
| 20260503220052 | 76 | 175 | 2.6 | 5.2 | 0.00 | 0.00 | 0.00 | 41 | 1022.3 |